Location: Huntsville
(34.7300°N, 86.5860°W)
Time: 15:04:41
(UTC-06:00)

ISS - Visible Passes

Search period start: 10 December 2018 00:00
Search period end: 20 December 2018 00:00
Orbit: 401 x 408 km, 51.6° (Epoch: 10 December)

Date Brightness Start Highest point End Pass type
(mag) Time Alt. Az. Time Alt. Az. Time Alt. Az.
10 Dec -2.2 18:18:14 10° NW 18:19:51 25° NNW 18:19:51 25° NNW visible
11 Dec -2.6 17:26:23 10° NNW 17:29:08 25° NE 17:30:39 18° ENE visible
11 Dec -0.6 19:02:48 10° WNW 19:03:23 13° WNW 19:03:23 13° WNW visible
12 Dec -3.3 18:10:17 10° NW 18:13:29 57° SW 18:14:36 34° SSE visible
13 Dec -3.9 17:18:04 10° NW 17:21:19 62° NE 17:24:31 10° ESE visible
14 Dec -1.0 18:02:55 10° W 18:05:21 20° SW 18:07:47 10° S visible
15 Dec -2.4 17:10:10 10° WNW 17:13:17 42° SW 17:16:21 10° SSE visible
